Theta_e
323 323 324 325 326 326 327 328 329 329 329 328 329 328 329 327 325 319 312 321 322 327 324 315 313 313 313 306 309 309 298 293 298 298 299 300 300 302 304 305 309 312 316 319 322
323 322 322 324 325 325 326 327 327 328 328 328 328 328 327 325 318 315 324 330 331 328 315 312 309 311 306 307 304 306 298 299 302 304 300 301 299 301 303 305 306 310 316 321 321
322 322 322 322 324 325 325 325 326 327 327 328 327 328 326 323 312 311 329 331 332 326 319 316 312 310 307 305 302 303 302 304 305 308 307 303 300 302 302 300 307 310 315 318 319
321 321 321 322 323 324 325 325 325 325 327 327 326 326 324 319 294 313 328 332 331 319 316 312 312 309 306 303 304 297 302 302 307 308 307 306 302 300 302 304 307 314 320 319 318
320 320 320 320 321 323 324 324 324 325 325 326 325 325 319 310 307 319 329 329 319 316 313 312 309 308 306 303 304 299 299 302 305 305 306 306 303 299 300 304 307 319 321 319 319
319 319 319 319 320 321 323 324 323 324 324 325 326 324 314 301 315 325 322 318 315 313 310 311 309 309 304 302 301 303 304 304 306 305 308 303 301 301 301 304 315 319 319 320 319
319 318 318 319 319 320 322 323 323 323 324 325 326 320 311 305 318 319 319 315 316 314 309 312 312 309 306 300 305 304 301 304 306 307 303 303 299 297 302 301 313 316 318 320 321
318 318 318 318 319 320 321 322 322 322 323 324 325 316 306 317 319 318 317 313 315 315 313 312 314 309 307 305 302 298 298 294 304 308 309 303 296 300 301 299 301 313 314 318 320
311 317 317 318 318 319 320 320 321 322 323 323 315 310 303 320 315 318 316 312 313 313 313 314 312 305 303 300 297 298 294 295 298 307 306 303 298 304 304 299 298 303 313 316 318
311 316 317 317 317 318 319 320 320 318 315 315 312 301 303 306 312 316 315 315 311 310 308 306 304 300 299 298 290 294 294 294 294 302 305 297 295 300 299 301 301 299 304 312 316
312 316 316 316 317 319 317 311 304 302 306 296 299 298 301 309 313 312 315 311 310 307 297 302 296 293 297 298 298 297 294 296 298 303 300 299 299 302 303 296 296 297 297 303 311
312 315 316 316 317 317 311 303 302 305 297 299 302 302 308 308 304 309 314 304 304 298 299 297 293 295 296 296 295 295 295 295 299 301 299 297 298 301 303 303 298 299 298 297 301
311 310 316 315 316 313 306 303 308 306 295 295 300 302 304 306 300 303 309 303 299 297 297 294 296 298 296 293 292 292 294 295 296 298 297 296 294 297 303 304 306 303 302 302 300
309 311 315 314 308 307 303 304 307 300 285 289 294 298 301 302 296 308 309 302 297 294 296 295 298 296 294 294 294 290 295 295 295 294 290 296 288 294 299 302 304 304 304 304 301
311 310 314 313 305 303 305 306 297 292 274 288 292 302 301 296 296 301 304 300 292 293 296 291 294 294 293 292 296 293 296 295 296 293 290 291 288 289 298 297 301 304 304 304 303
310 311 313 309 307 307 306 303 296 280 266 285 292 293 293 293 293 301 302 302 298 292 291 289 292 294 294 296 297 297 295 293 292 290 283 290 289 290 293 296 298 302 305 305 303
310 312 310 309 301 308 305 298 279 274 280 284 286 291 290 289 291 294 293 292 287 285 285 289 291 292 293 291 292 296 292 284 281 281 282 285 288 291 295 295 296 300 301 301 302
310 306 309 307 309 307 302 288 272 272 278 287 288 289 285 289 288 290 289 287 291 285 278 280 276 288 292 292 291 292 292 285 278 278 280 283 284 290 296 300 301 298 298 299 298
308 302 305 306 308 306 294 280 276 276 283 285 287 283 284 287 286 286 285 286 289 289 281 280 280 288 292 293 294 289 287 293 286 280 279 280 283 290 292 292 294 297 299 299 299
302 300 300 307 308 301 288 280 278 283 288 288 280 284 279 283 281 283 285 286 286 291 291 285 281 287 290 294 295 292 293 286 287 278 278 282 280 286 288 290 293 293 295 298 297
301 292 301 308 305 294 282 278 282 287 290 283 281 280 281 282 282 282 283 285 289 288 292 288 286 284 290 289 289 289 288 290 290 286 281 278 283 290 293 295 296 294 294 295 297
294 285 303 305 289 288 283 283 289 286 287 285 284 283 282 284 281 281 282 284 290 291 286 289 285 278 284 291 292 293 290 290 284 281 284 279 285 290 288 288 290 290 290 291 294
288 293 303 300 283 284 286 283 285 285 284 284 284 284 286 284 279 285 287 289 291 290 288 290 285 278 281 286 289 287 290 292 291 288 284 281 285 291 287 285 287 287 289 290 290
293 286 293 295 291 287 283 281 280 286 285 285 284 286 283 283 283 282 286 290 293 294 293 293 286 283 277 278 284 283 287 290 289 285 285 286 288 293 287 285 287 287 288 289 288
289 287 290 284 286 286 285 282 281 280 284 285 283 285 283 281 281 280 285 286 290 292 290 286 278 281 282 284 283 281 284 287 287 288 286 289 289 293 295 296 297 289 288 288 290
287 288 289 286 287 285 286 282 282 280 282 280 282 284 282 281 281 279 283 282 280 285 284 286 272 281 279 282 282 280 281 281 287 289 289 290 290 297 297 296 296 291 289 288 290
289 292 290 289 286 284 283 283 282 282 283 284 285 283 282 283 285 286 286 285 285 283 281 282 275 273 269 280 280 274 279 282 284 290 290 286 291 296 296 297 297 296 292 290 290
Wind_Speed
25 24 22 19 17 18 16 16 16 15 14 11 9 9 9 10 8 3 5 6 6 6 3 3 5 5 4 3 2 1 3 2 4 5 3 2 3 1 1 7 1 2 7 4 16
27 26 24 22 19 18 18 15 15 16 14 12 11 11 11 11 2 10 6 5 7 10 5 2 1 3 3 1 1 5 3 6 5 3 1 4 3 3 3 4 1 2 1 12 18
29 27 26 25 21 19 19 18 15 16 15 14 12 13 12 7 3 8 12 6 9 6 6 4 5 3 2 3 2 4 7 2 4 1 5 4 2 5 4 3 8 11 9 16 15
31 29 28 26 24 21 20 19 16 16 17 16 16 14 11 2 8 1 6 11 10 6 6 7 5 3 4 4 2 6 6 4 1 3 4 4 7 5 6 6 5 9 18 18 18
32 30 28 27 25 22 21 21 18 16 18 18 17 16 6 3 6 3 10 10 5 4 7 7 6 5 5 4 2 3 5 6 3 2 4 4 8 6 6 8 2 9 13 21 20
33 31 29 28 26 24 22 21 19 15 19 20 19 17 4 7 1 6 8 8 4 4 3 4 7 6 4 3 4 3 5 4 2 1 3 3 6 6 7 7 6 10 14 17 18
35 32 31 29 27 26 23 22 20 18 19 22 20 9 3 8 3 7 5 3 3 4 6 2 4 4 8 3 1 3 4 5 7 5 3 2 5 7 9 5 8 10 12 13 16
31 33 33 30 28 26 24 22 19 17 20 24 21 4 5 2 5 7 6 4 6 6 5 2 5 7 4 4 3 2 1 3 4 9 6 7 10 8 9 7 10 11 9 12 14
16 37 35 32 29 27 26 23 20 14 18 22 10 4 5 6 7 4 4 7 6 4 5 3 5 4 3 6 2 1 4 6 8 6 5 10 6 17 11 9 11 10 12 12 12
16 39 36 34 31 28 26 23 21 16 9 6 2 7 2 8 6 7 2 8 5 6 5 4 4 2 2 5 12 6 4 4 5 4 8 7 11 11 7 9 16 10 11 13 15
25 33 35 35 32 30 24 16 10 6 9 6 5 4 8 8 5 5 5 6 4 3 6 3 4 10 10 6 1 2 5 6 4 7 4 9 11 19 14 8 10 10 9 13 16
19 26 35 35 34 32 20 19 32 10 18 5 8 5 4 2 7 9 9 7 8 6 9 4 14 7 6 4 5 4 3 4 6 8 3 7 14 13 13 12 12 16 13 12 14
22 26 39 37 35 27 26 22 12 18 9 3 4 6 5 4 8 17 14 5 7 7 12 8 3 11 9 6 7 6 13 9 5 4 2 5 18 12 16 15 17 16 16 16 17
19 26 36 38 29 21 24 15 15 5 6 5 6 4 4 4 1 2 9 5 5 14 6 9 5 13 8 11 10 12 6 3 3 2 5 4 16 11 9 19 21 21 21 20 18
26 21 39 40 20 27 28 17 8 7 11 11 5 4 9 8 9 10 2 3 8 6 6 5 8 9 12 5 9 6 5 9 8 9 1 7 8 6 15 24 20 20 24 24 25
24 23 45 29 16 22 18 15 6 6 8 10 11 14 12 4 2 7 9 3 2 4 3 5 2 5 8 8 14 7 4 4 3 4 8 13 11 21 15 21 9 15 22 22 21
26 26 33 20 18 21 18 12 8 8 2 12 13 18 23 10 7 11 18 13 9 10 14 3 5 0 1 5 2 7 6 5 5 7 10 4 13 30 10 9 8 13 16 16 18
25 16 32 13 19 22 16 12 8 5 11 5 16 21 20 19 10 12 18 15 15 4 6 10 5 10 6 8 3 16 17 4 6 6 6 2 12 15 11 14 15 12 11 9 11
28 6 17 15 23 17 19 18 14 11 10 16 20 19 10 18 8 8 14 16 14 11 8 7 7 1 5 6 11 7 12 17 9 0 1 5 11 13 10 12 10 13 14 17 15
12 11 13 24 25 17 18 10 6 8 14 21 13 12 14 24 8 14 16 9 7 16 3 2 2 3 5 4 4 14 1 5 9 12 14 9 9 15 4 7 11 16 19 16 10
11 11 18 27 19 15 20 6 6 5 19 8 8 9 9 18 8 13 17 1 17 12 17 5 4 2 5 11 16 7 6 9 3 5 7 9 13 8 15 17 18 11 11 9 9
8 7 19 26 15 11 17 9 8 8 3 5 7 5 14 19 6 7 9 7 7 12 18 13 3 8 13 5 4 12 22 12 5 9 5 2 23 7 8 9 8 13 10 11 9
8 9 16 24 14 16 11 6 5 9 6 4 5 2 5 12 7 7 11 2 3 13 12 11 8 7 3 3 2 7 13 19 17 11 19 11 24 2 9 7 10 12 9 12 11
7 12 15 12 1 21 23 8 7 3 4 6 7 6 8 6 5 9 4 3 2 3 9 6 4 5 11 2 3 5 13 17 17 13 20 16 34 22 8 8 9 10 11 9 8
2 7 12 13 11 17 15 6 16 8 2 6 3 9 10 7 4 4 6 4 3 15 6 5 2 0 7 7 6 8 14 18 23 20 15 29 26 28 19 20 19 7 9 10 10
4 12 5 13 20 20 15 13 21 5 7 5 11 12 7 8 7 7 9 5 6 4 4 7 4 7 7 9 6 8 16 19 25 30 26 34 30 34 12 12 16 14 9 12 13
4 4 12 17 19 18 16 18 15 9 8 5 18 9 7 9 8 10 6 6 9 8 6 7 4 3 7 6 6 8 12 15 16 27 28 30 39 31 25 26 25 23 15 14 15
Wind_Direction
215 213 212 215 218 217 208 210 203 190 188 183 184 187 155 146 134 157 206 217 175 146 119 329 29 15 18 83 77 137 81 225 226 169 238 320 196 134 19 123 112 155 160 220 135
210 210 208 207 210 209 212 204 206 192 180 175 178 163 153 144 126 217 228 261 164 149 108 108 66 52 56 18 73 112 147 223 210 193 232 312 175 197 159 129 286 204 51 138 144
206 205 207 203 204 204 205 204 199 196 177 167 168 149 152 159 188 234 199 209 184 170 126 114 92 65 68 305 143 170 193 168 247 83 350 327 290 175 157 219 210 195 161 157 161
206 201 201 201 196 198 200 200 192 198 181 166 165 150 147 150 188 210 192 168 160 149 108 119 103 117 144 199 296 144 240 215 267 19 332 309 325 314 185 235 278 184 170 158 173
202 199 197 198 195 193 196 196 188 190 183 168 164 143 144 182 254 312 155 136 115 137 149 145 133 133 196 171 65 288 197 193 121 355 328 320 265 237 251 249 15 140 166 179 183
199 196 193 192 192 191 193 190 189 188 185 170 159 153 162 187 149 126 121 122 122 103 115 142 161 154 117 160 182 328 306 291 221 188 282 247 264 154 266 137 140 167 185 190 192
195 193 189 188 189 189 189 188 184 189 183 171 160 159 185 194 132 117 97 104 105 126 127 14 131 129 136 115 111 20 317 296 232 183 230 5 275 223 237 150 176 200 195 199 207
224 192 186 182 187 185 182 181 173 183 184 175 160 163 170 53 128 110 121 51 73 61 93 84 96 96 75 122 65 137 243 274 232 177 219 122 253 266 253 177 211 207 215 209 208
277 191 184 177 182 182 177 174 169 162 177 172 165 167 158 111 159 151 116 124 96 56 69 68 54 83 57 139 125 214 232 250 308 221 153 172 216 245 223 206 242 209 215 212 225
247 191 182 176 175 178 171 164 169 170 98 96 189 118 241 181 134 146 130 132 111 121 71 75 75 118 144 176 217 192 222 211 233 272 227 210 233 247 239 207 236 225 210 212 216
238 190 184 174 171 171 157 145 147 163 188 185 205 82 134 124 113 152 152 99 105 93 151 172 173 210 189 217 358 97 210 232 220 239 258 250 247 251 248 234 246 244 217 220 223
226 206 183 174 169 166 160 179 178 153 160 21 130 78 119 165 145 169 156 164 165 169 118 149 226 179 179 189 251 252 233 254 305 281 252 275 263 258 256 249 227 244 239 223 231
207 209 177 175 168 163 175 174 151 124 130 97 128 118 167 136 183 179 175 133 179 167 181 189 143 162 157 169 205 235 229 231 246 341 272 323 275 248 259 243 249 248 243 237 216
193 204 183 172 167 166 177 163 152 119 103 159 186 192 131 155 158 106 186 143 174 195 146 232 202 168 173 204 172 234 191 212 217 124 253 116 283 238 248 249 230 236 237 237 224
222 217 170 173 162 180 161 146 132 63 173 158 168 135 153 170 138 201 243 84 164 153 157 188 178 171 208 195 163 242 181 208 218 222 350 224 272 284 210 251 236 226 235 230 230
196 211 166 172 170 164 155 132 70 95 219 173 147 173 157 145 154 132 169 84 111 121 91 178 266 192 206 180 192 164 144 47 13 169 229 236 208 263 223 243 237 219 235 231 230
194 191 165 167 165 147 148 143 108 175 168 151 173 172 181 161 151 176 178 185 165 176 206 79 190 157 245 132 182 185 162 225 214 224 239 234 202 251 287 275 232 225 238 233 229
188 186 162 171 156 151 150 135 147 167 177 160 154 158 179 156 169 183 181 191 211 159 129 191 282 174 173 207 139 212 208 210 233 214 242 137 218 250 237 261 244 237 247 251 226
162 174 167 166 154 164 152 175 188 174 164 143 138 150 167 179 153 152 195 203 198 178 158 172 241 159 174 153 166 169 231 238 271 276 221 214 274 289 247 263 256 250 250 247 242
179 199 164 164 150 166 167 166 133 156 127 145 147 176 168 179 144 172 176 206 203 194 123 192 238 196 165 96 236 219 55 198 202 246 252 232 250 248 313 259 253 247 247 252 241
185 151 159 154 154 166 179 181 122 171 131 138 158 128 168 172 153 176 174 275 183 180 192 153 170 130 132 204 196 180 203 233 245 204 225 253 252 208 236 233 248 255 255 252 232
141 138 159 146 161 167 177 148 116 139 117 128 111 109 157 161 130 157 187 185 180 156 193 192 186 240 226 150 253 256 225 214 216 211 239 311 266 192 225 253 244 261 263 268 233
153 127 157 155 164 164 158 105 114 147 147 140 113 145 127 149 129 188 165 147 138 168 169 160 211 230 190 206 175 245 238 241 254 271 261 250 261 266 222 252 260 270 269 275 267
173 142 150 169 101 158 154 152 116 89 98 90 107 109 102 129 23 150 121 127 80 122 71 191 186 207 235 128 35 225 224 227 240 238 240 236 262 249 281 272 287 272 276 270 266
237 151 143 155 159 156 160 111 137 136 117 133 78 156 134 131 89 94 102 102 108 138 115 132 173 145 277 229 275 331 284 237 225 234 233 243 248 258 252 276 288 303 311 292 267
155 146 112 144 151 147 163 167 160 113 151 158 136 143 105 121 150 162 136 154 178 148 124 177 262 179 248 233 176 265 269 271 257 233 235 248 257 255 270 257 266 270 260 267 265
255 87 130 151 158 152 178 164 153 127 22 116 129 111 100 156 145 156 126 139 148 141 151 162 151 103 262 189 183 257 251 244 235 237 229 238 243 262 251 251 251 255 241 238 249